Lexington Weather

Lexington, Massachusetts, USA

33°F
12/8/2019 4:09pm 
  • Lexington Conditions: Mostly cloudy
  • Temperature: 32.5°F / 0.3°CColder 1.1°F than last hour.
  • Dew Point: 17.2°FIncreased 1.6°Fsince last hour.
  • Relative Humidity: 53%Increased 6.0% since last hour.
  • Wind: Wind from SSW SSW 4 mph, 10-min avg: 2 mph, gust: 7 mph
  • Barometer: 30.40 in Steady
  • Visibility: 10 miles
  • Snow Today: 0.0 in
  •   

Regional Weather Roundup
for Boston / Norton, MA

        
000
ASUS41 KBOX 081910
RWRBOX

REGIONAL WEATHER ROUNDUP
NATIONAL WEATHER SERVICE BOSTON/NORTON MA
200 PM EST SUN DEC 08 2019

NOTE:  "FAIR" INDICATES FEW OR NO CLOUDS BELOW 12,000 FEET WITH NO 
SIGNIFICANT WEATHER AND/OR OBSTRUCTIONS TO VISIBILITY.

MAZALL-082000-
EASTERN MASSACHUSETTS
  
CITY           SKY/WX    TMP DP  RH WIND       PRES   REMARKS
BOSTON         PTSUNNY   36  10  34 S14       30.45F WCI  27          
BEVERLY        FAIR      34  10  37 S6        30.43F WCI  29          
LAWRENCE       FAIR      32   8  36 S6        30.44F WCI  26          
BEDFORD        PTSUNNY   33   7  33 SW9       30.42F WCI  25          
BLUE HILL        N/A     31  13  47 S15G22    30.40F WCI  20          
NORWOOD        FAIR      36  14  40 S10       30.45F WCI  28          
MARSHFIELD     FAIR      37  14  38 VRB6G13   30.45F                  
PLYMOUTH       FAIR      34  22  61 SW12      30.46F WCI  25          
TAUNTON        FAIR      37  22  54 S10       30.46F WCI  30          
NEW BEDFORD    FAIR      37  24  59 S12       30.47F WCI  29          
$$

MAZALL-082000-
CAPE COD AND THE ISLANDS
  
CITY           SKY/WX    TMP DP  RH WIND       PRES   REMARKS
FALMOUTH       SUNNY     36  19  51 S13       30.48F WCI  27          
HYANNIS        FAIR      35  22  58 S12       30.47F WCI  27          
CHATHAM        FAIR      35  22  58 VRB7      30.49F WCI  29          
PROVINCETOWN   FAIR      35  21  56 S10       30.47F WCI  27          
NANTUCKET      FAIR      36  23  59 S9        30.50S WCI  29          
MARTHAS VNYRD  FAIR      37  24  59 S16       30.49S WCI  28          
$$
 
MAZALL-082000-
CENTRAL AND WESTERN MASSACHUSETTS
  
CITY           SKY/WX    TMP DP  RH WIND       PRES   REMARKS
WORCESTER      FAIR      29   6  38 S10       30.38F WCI  20          
FITCHBURG      FAIR      32   3  29 SW7       30.41F WCI  26          
ORANGE         FAIR      30  12  47 S7        30.40F WCI  23          
SPRINGFIELD    FAIR      29  14  52 S10       30.41F WCI  20          
WESTFIELD      FAIR      30  14  51 SE7       30.42F WCI  23          
NORTH ADAMS    FAIR      32  10  40 VRB7      30.35S WCI  26          
PITTSFIELD     FAIR      30  12  47 S5        30.32F WCI  25          
$$
 
RIZALL-082000-
RHODE ISLAND
  
CITY           SKY/WX    TMP DP  RH WIND       PRES   REMARKS
PROVIDENCE     FAIR      36  20  52 SW10      30.47F WCI  28          
NEWPORT        FAIR      37  23  56 VRB6      30.47F                  
BLOCK ISLAND   PTSUNNY   38  25  59 SW13      30.48F WCI  30          
SMITHFIELD     FAIR      34  13  41 S7        30.44F WCI  28          
WESTERLY       FAIR      39  24  55 SW10      30.48F                  
$$
 
CTZALL-082000-
CONNECTICUT
  
CITY           SKY/WX    TMP DP  RH WIND       PRES   REMARKS
BRADLEY INTL   PTSUNNY   36  16  44 S12       30.43F WCI  28          
HARTFORD       FAIR      34  14  43 S9        30.45F WCI  27          
BRIDGEPORT     FAIR      37  19  48 S10       30.47F WCI  30          
DANBURY        FAIR      34  19  54 S8        30.44F WCI  27          
GROTON         FAIR      37  22  54 SW10      30.47F WCI  30          
NEW HAVEN      FAIR      37  21  52 S8        30.47F WCI  31          
CHESTER        FAIR      34  18  51 S6        30.45F WCI  29          
MERIDEN        FAIR      33  18  53 S9        30.46F WCI  25          
WILLIMANTIC    FAIR      33  13  43 S9        30.46F WCI  25          
OXFORD         FAIR      33  19  56 S12       30.42F WCI  24          
$$

MEZ002-015-021-024-NHZ003-005-008-011-012-014-VTZ005-008-082000-
NORTHERN NEW ENGLAND
  
CITY           SKY/WX    TMP DP  RH WIND       PRES   REMARKS
PORTLAND ME    FAIR      33   4  29 S7        30.41F WCI  27          
BANGOR ME      FAIR      30  11  45 S13       30.38F WCI  20          
CONCORD NH     FAIR      28   8  43 SE8       30.39F WCI  20          
MANCHESTER NH  PTSUNNY   32   7  35 S10       30.38F WCI  24          
NASHUA NH      FAIR      33   7  33 VRB3      30.41F                  
PORTSMOUTH NH  PTSUNNY   32   2  28 S8        30.40  WCI  25          
JAFFREY NH     FAIR      29  32 100 S9        30.34F WCI  20          
KEENE NH       FAIR      30  13  49 S8        30.38F WCI  22          
BURLINGTON VT  CLOUDY    30  13  49 S18G25    30.26F WCI  18          
MT. WASHINGTON PTSUNNY   14  -4  44 SW40G55     N/A  WCI  -9          
$$

NYZ052-076-082000-
EASTERN NEW YORK
  
CITY           SKY/WX    TMP DP  RH WIND       PRES   REMARKS
ALBANY         CLOUDY    32  16  51 S10       30.35F WCI  24          
NEW YORK CITY  PTSUNNY   41  20  43 S13       30.45F                  
$$
 
ANZALL-082000-
MARINE OBSERVATIONS
  
STATION/POSITION TIME  TEMP    WIND        PRES    VSBY  WAVE
                       AIR SEA DIR/SP/G                  HT/PER
                 (UTC) (F)     (DEG/KT/KT) (MB)    (MI)  (FT/S)
BOSTON BUOY      1850   36 47  190/ 12/ 16 1030.8F         1/ 2
BUZZARDS BAY     1800   36     200/ 13/ 15 1032.9F
NANTUCKET SOUND  1840      44              1032.8F
MASS BAY-STELLWA 1804   34 46  230/ 12/ 14 1030.0F  1 7/8  1/ 3
ISLE OF SHOALS   1800   31     220/ 14/ 15 1030.8F
S OF BLOCK IS    1900      52                N/A           1/ 2
$$

......................KEY.........................
  SKY/WX - SKY CONDITION/PRESENT WEATHER
  TMP    - TEMPERATURE IN FAHRENHEIT
  DWPT   - DEWPOINT IN FAHRENHEIT
  RH     - RELATIVE HUMIDITY IN PERCENT
  WIND   - DIRECTION AND SPEED IN MPH
  PRES   - MEAN SEA LEVEL PRESSURE IN INCHES OF HG
  WCI    - WIND CHILL INDEX
  VSB    - VISIBILITY IN MILES
  HX     - HEAT INDEX
  TC     - TEMPERATURE IN CELSIUS
  VRB    - VARIABLE WIND DIRECTION
  N/A    - NOT AVAILABLE
  
      

Other recent Regional Weather Roundups

Sun Dec 8, 4:01pm

Sun Dec 8, 3:10pm

Sun Dec 8, 3:01pm

Sun Dec 8, 2:01pm

Sun Dec 8, 1:10pm

Sun Dec 8, 1:00pm

Sun Dec 8, 12:10pm

Sun Dec 8, 12:01pm

Sun Dec 8, 11:10am

Sun Dec 8, 11:00am

Sun Dec 8, 10:10am

Sun Dec 8, 10:01am

Sun Dec 8, 9:10am

Sun Dec 8, 9:00am

Sun Dec 8, 8:10am

Sun Dec 8, 8:00am

Sun Dec 8, 7:10am

Sun Dec 8, 7:00am

Sun Dec 8, 6:10am

Sun Dec 8, 6:00am

Sun Dec 8, 5:10am

Sun Dec 8, 5:00am

Sun Dec 8, 4:10am

Sun Dec 8, 4:00am

Sun Dec 8, 3:10am

Sun Dec 8, 3:00am

Sun Dec 8, 2:10am

Sun Dec 8, 2:00am

Sun Dec 8, 1:10am

Sun Dec 8, 1:00am

Sun Dec 8, 12:10am

Sun Dec 8, 12:01am

Sat Dec 7, 11:10pm

Sat Dec 7, 11:00pm

Sat Dec 7, 10:10pm

Sat Dec 7, 10:00pm

Sat Dec 7, 9:10pm

Sat Dec 7, 9:00pm

Sat Dec 7, 8:10pm

Sat Dec 7, 8:00pm

Sat Dec 7, 7:10pm

Sat Dec 7, 7:00pm

Sat Dec 7, 6:10pm

Sat Dec 7, 6:00pm

Sat Dec 7, 5:10pm

Sat Dec 7, 5:00pm

Sat Dec 7, 4:10pm

Sat Dec 7, 4:00pm

Sat Dec 7, 3:10pm

Sat Dec 7, 3:00pm

Sat Dec 7, 2:10pm

Sat Dec 7, 2:01pm

Sat Dec 7, 1:10pm

Sat Dec 7, 1:00pm

Sat Dec 7, 12:10pm

Sat Dec 7, 12:01pm

Sat Dec 7, 11:10am

Sat Dec 7, 11:00am

Sat Dec 7, 10:10am

Sat Dec 7, 10:01am

Sat Dec 7, 9:10am

Sat Dec 7, 9:00am

Sat Dec 7, 8:10am

Sat Dec 7, 8:00am

Sat Dec 7, 7:10am

Sat Dec 7, 7:00am

Sat Dec 7, 6:10am

Sat Dec 7, 6:00am

Sat Dec 7, 5:10am

Sat Dec 7, 5:00am

Sat Dec 7, 4:10am

Sat Dec 7, 4:00am

Sat Dec 7, 3:10am

Sat Dec 7, 3:00am

Sat Dec 7, 2:10am

Sat Dec 7, 2:01am

Sat Dec 7, 1:10am

Sat Dec 7, 1:00am

Sat Dec 7, 12:10am

Sat Dec 7, 12:01am

Fri Dec 6, 11:10pm

Fri Dec 6, 11:00pm

Fri Dec 6, 10:10pm

Fri Dec 6, 10:00pm

Fri Dec 6, 9:10pm

Fri Dec 6, 9:00pm

Fri Dec 6, 8:10pm

Fri Dec 6, 8:00pm

Fri Dec 6, 7:10pm

Fri Dec 6, 7:01pm

Fri Dec 6, 6:10pm

Fri Dec 6, 6:00pm

Fri Dec 6, 5:10pm

Fri Dec 6, 5:00pm

Fri Dec 6, 4:10pm

Fri Dec 6, 4:00pm

Fri Dec 6, 3:10pm

Fri Dec 6, 3:00pm

Fri Dec 6, 2:10pm

Fri Dec 6, 2:00pm

Fri Dec 6, 1:10pm

Fri Dec 6, 1:00pm

Fri Dec 6, 12:10pm

Fri Dec 6, 12:00pm

Fri Dec 6, 11:10am

Fri Dec 6, 11:00am

Fri Dec 6, 10:10am

Fri Dec 6, 10:00am

Fri Dec 6, 9:10am

Fri Dec 6, 9:00am

Fri Dec 6, 8:10am

Fri Dec 6, 8:00am

Fri Dec 6, 7:10am

Fri Dec 6, 7:00am

Fri Dec 6, 6:10am

Fri Dec 6, 6:01am

Fri Dec 6, 5:10am

Fri Dec 6, 5:00am

Fri Dec 6, 4:10am

Fri Dec 6, 4:00am

Fri Dec 6, 3:10am

Fri Dec 6, 3:00am

Fri Dec 6, 2:10am

Fri Dec 6, 2:00am

Fri Dec 6, 1:10am

Fri Dec 6, 1:00am

Fri Dec 6, 12:10am

Fri Dec 6, 12:00am

Thu Dec 5, 11:10pm

Thu Dec 5, 11:00pm

Thu Dec 5, 10:10pm

Thu Dec 5, 10:01pm

Thu Dec 5, 9:10pm

Thu Dec 5, 9:01pm

Thu Dec 5, 8:10pm

Thu Dec 5, 8:00pm

Thu Dec 5, 7:10pm

Thu Dec 5, 7:00pm

Thu Dec 5, 6:10pm

Thu Dec 5, 6:00pm

Thu Dec 5, 5:10pm

Thu Dec 5, 5:00pm

Thu Dec 5, 4:10pm

Meta data:

ID: cc21ad39-1cb4-4d05-9cf8-f224eba61942
Link: https://api.weather.gov/products/cc21ad39-1cb4-4d05-9cf8-f224eba61942